Regional Weather Roundup
Issued by NWS Wilmington, NC

Home | Current Version | Previous Version | Text Only | Print | Product List | Glossary On
Versions: 1 2 3 4 5 6 7 8 9 10 11 12 13 14 15 16 17 18 19 20 21 22 23 24 25 26 27
000
ASUS42 KILM 210910
RWRILM
RWRILM
REGIONAL HOURLY WEATHER ROUNDUP
NATIONAL WEATHER SERVICE WILMINGTON NC
500 AM EDT MON APR 21 2014

NOTE: "FAIR" INDICATES FEW OR NO CLOUDS BELOW 12,000 FEET WITH NO
SIGNIFICANT WEATHER AND/OR OBSTRUCTIONS TO VISIBILITY.

...............WFO WILMINGTON COUNTY WARNING AREA...............

......COASTAL NC AND SC COUNTIES......

CITY           SKY/WX    TMP DP  RH WIND       PRES   REMARKS
WILMINGTON     CLOUDY    52  43  71 N13       30.04F
SOUTHPORT      MOCLDY    50  44  78 N12G20    30.03S
N MYRTLE BEACH CLEAR     52  42  69 N10       30.04F
MYRTLE BEACH   CLEAR     52  41  66 N12       30.05S

......INLAND NC AND SC COUNTIES.......

CITY           SKY/WX    TMP DP  RH WIND       PRES   REMARKS
LUMBERTON      CLEAR     51  41  68 N12       30.09F
ELIZABETHTOWN  CLEAR     49  41  73 CALM      30.09S
WHITEVILLE     CLEAR     51  41  70 N5        30.08S
FLORENCE       CLEAR     53  39  59 N9        30.10F
DARLINGTON     CLEAR     54  37  54 N8        30.13S

....................REST OF NORTH CAROLINA......................

.........EASTERN NC.........

CITY           SKY/WX    TMP DP  RH WIND       PRES   REMARKS
CAPE HATTERAS  CLOUDY    50  50 100 NE17G31   29.98S FOG
JACKSONVILLE   CLOUDY    50  50 100 N8        30.06S
MOREHEAD CITY  CLOUDY    51  49  92 N17G28    30.01R
KENANSVILLE    PTCLDY    47  39  73 N10       30.10R
NEW BERN       CLOUDY    52  46  80 N10       30.06S
ELIZABETH CITY CLOUDY    49  45  86 N15       30.09F

.........CENTRAL NC.........

CITY           SKY/WX    TMP DP  RH WIND       PRES   REMARKS
RALEIGH DURHAM CLEAR     43  32  65 VRB6      30.16S
ROCKY MOUNT    CLEAR     45  36  70 N12       30.13S
ROANOKE RAPIDS NOT AVBL
FAYETTEVILLE   CLEAR     50  37  61 N12       30.11S
HOFFMAN        CLEAR     48  35  59 N7        30.15S

.........WESTERN NC.........

CITY           SKY/WX    TMP DP  RH WIND       PRES   REMARKS
CHARLOTTE      CLEAR     45  38  76 N6        30.17S
GREENSBORO     CLEAR     44  33  65 NE5       30.18S
HICKORY        NOT AVBL
BOONE          NOT AVBL
ASHEVILLE      NOT AVBL

.....................REST OF SOUTH CAROLINA.....................

.........EASTERN SC.........

CITY           SKY/WX    TMP DP  RH WIND       PRES   REMARKS
CHARLESTON     CLEAR     57  45  64 N10       30.06F
BEAUFORT MCAS  CLEAR     58  48  69 NE10      30.07F
HILTON HEAD    NOT AVBL

.........CENTRAL SC.........

CITY           SKY/WX    TMP DP  RH WIND       PRES   REMARKS
COLUMBIA       CLEAR     50  43  77 CALM      30.12F
ORANGEBURG     CLEAR     55  44  66 N8        30.11S
SUMTER SHAW    CLEAR     52  40  64 N7        30.10S

.........WESTERN SC.........

CITY           SKY/WX    TMP DP  RH WIND       PRES   REMARKS
GREENVILLE     NOT AVBL
ROCK HILL      CLEAR     47  39  74 NE3       30.16F
ANDERSON       CLEAR     45  39  79 NE3       30.16S
CLEMSON        NOT AVBL
GREENWOOD      CLEAR     44  38  79 N6        30.17S


...................COASTAL AND OFFSHORE REPORTS..................

................LOCAL PIERS AND NC RESERVE................


STATION/POSITION TIME  SKY/WX   TEMP    WIND        PRES    VSBY
                                AIR SEA DIR/SP/G
                 (UTC)          (F)     (DEG/KT/KT) (MB)    (MI)
JOHNY MRCER PIER 0900            52 59  360/ 13/ 21 1016.1S
NC RESRV MASNBRO 0800            51     350/  3     1016.0S
OCEAN CREST PIER 0900            51 60  360/ 12/ 15 1015.5F
SPRINGMAID  PIER 0900            53 60  350/ 10/ 13 1017.5R


................COASTAL AND OFFSHORE BUOYS................


STATION/POSITION TIME  SKY/WX   TEMP    WIND        PRES    VSBY
                                AIR SEA DIR/SP/G
                 (UTC)          (F)     (DEG/KT/KT) (MB)    (MI)
DIMNDSHOAL 41025 0900            57 75  360/ 29/ 35 1012.7R
WVE H/P(F/S)= 12/11 WND WVE H/P(F/S)=  8/ 8 SWL H/P/D(F/S/D)=  8/ 60/11

CAPE LOOKOUT     0800            51     360/ 23/ 29 1015.4F
ONSLOW BAY 41036 0900            55 65   10/ 25/ 31 1014.9R
WVE H/P(F/S)=  9/12 WND WVE H/P(F/S)=  8/ 6 SWL H/P/D(F/S/D)=  5/ 90/12

5 WRITEBCH 41038 0800            54 58  360/ 21/ 23 1016.2F
MASONBORO  41110 0900               58                N/A
WVE H/P(F/S)=  6/ 6 WND WVE H/P(F/S)=  5/ 6 SWL H/P/D(F/S/D)=  2/ 90/11

WILM HARBR 41108 0900               60                N/A
WVE H/P(F/S)=  5/11 WND WVE H/P(F/S)=  5/ 4 SWL H/P/D(F/S/D)=  2/140/11

27WRITEBCH 41037 0800            53      20/ 29/ 33 1012.8F
FRYING PAN 41013 0900            57 67   10/ 27/ 31 1014.4S
WVE H/P(F/S)=  9/ 8 WND WVE H/P(F/S)=  8/ 8 SWL H/P/D(F/S/D)=  3/100/ 9

SUNST NRSH 41024 0800            54     360/ 19/ 21 1016.6R
CAPRS NRSH 41029 NOT AVBL
EDISTO     41004 NOT AVBL


..........OFFSHORE BUOYS BEYOND 100 NM OFFSHORE...........
.....IN A TRIANGLE---HAT TO BERMUDA TO BAHAMAS TO HAT.....


STATION/POSITION TIME  SKY/WX   TEMP    WIND        PRES    VSBY
                                AIR SEA DIR/SP/G
                 (UTC)          (F)     (DEG/KT/KT) (MB)    (MI)
150E HAT   41001 NOT AVBL
W BERMUDA  41048 0846            71 69  170/ 14/ 17 1009.8F
WVE H/P(F/S)=  9/ 8 WND WVE H/P(F/S)=  5/ 6 SWL H/P/D(F/S/D)=  7/180/ 8

ATLANTIC S 41049 0819            74 75  130/ 10/ 12 1018.4F
WVE H/P(F/S)=  5/ 8 WND WVE H/P(F/S)=  2/ 4 SWL H/P/D(F/S/D)=  5/ 90/ 8

E BAHAMAS  41046 NOT AVBL
NE BAHAMAS 41047 0805            74 74  260/ 14/ 17 1011.4F
WVE H/P(F/S)=  7/ 8 WND WVE H/P(F/S)=  5/ 6 SWL H/P/D(F/S/D)=  5/120/ 8

120E CANVRL41010 0900            72 74  330/ 17/ 19 1013.1F
WVE H/P(F/S)=  8/ 8 WND WVE H/P(F/S)=  5/ 6 SWL H/P/D(F/S/D)=  5/ 30/ 8


END



USA.gov is the U.S. government's official web portal to all federal, state and local government web resources and services.